Погода в Фалмуте

Ямайка     18°29′12″N   77°39′01″W
темп.,
°C
ветер,
м/с
пор.,
м/с
влажн.,
%
обл.,
%
осадки,
мм/ч
давл.,
гПа
погр.,
м
8 декабря, ср
ср801:00+24вюв348339 0.0 1015496
04:00+23юв348591 0.1 1015287
07:00+23юв338419 0.1 1016304
10:00+27в34634 0.0 1018750
13:00+28всв55675 0.0 1015941
16:00+27всв67712 0.1 1014770
19:00+25вюв45810 0.2 1015456
22:00+24вюв23831 0.0 1017280
9 декабря, чт
чт901:00+24в358211 0.0 1016555
04:00+23в358112 0.0 1015573
07:00+24вюв478211 0.0 1017618
10:00+28в68620 0.0 10181049
13:00+28всв78641 0.0 10151017
16:00+27всв78725 0.0 1014877
19:00+25вюв47790 0.0 1016450
22:00+24вюв46817 0.0 1017579
10 декабря, пт
пт1001:00+24в59819 0.0 1015696
04:00+24в711788 0.0 1014831
07:00+26в810706 0.0 10161149
10:00+28всв89624 0.0 10171298
13:00+28всв78605 0.0 10151295
16:00+27всв78670 0.0 10131085
19:00+25в69772 0.0 1015753
22:00+26в710764 0.0 10151016
11 декабря, сб
сб1101:00+25в7117818 0.1 1014984
04:00+26всв797581 0.1 10131070
07:00+25в6108021 0.1 1015898
10:00+28в896978 0.1 10161242
13:00+28всв786536 0.2 10131329
16:00+27всв787038 0.0 1012894
19:00+25вюв577821 0.1 1014517
22:00+24вюв35825 0.0 1015560
12 декабря, вс
вс1201:00+24вюв368312 0.1 1014595
04:00+24в588422 0.1 1014620
07:00+25в698340 0.1 1016745
10:00+27в687143 0.1 10171050
13:00+28всв676921 0.2 10151174
16:00+27всв687311 0.1 1014981
19:00+24в48844 0.1 1015601
22:00+25в610784 0.0 1016881